Home   Weather   Gütersloh   Past weeks

Flag for Germany Past Weather in Gütersloh, North Rhine-Westphalia, Germany — Yesterday and Last 2 Weeks

Now
30 °F

Ice fog.


Feels Like: 25 °F
Forecast: 25 / 33 °F
Wind: 5 mph from South

Location: Muenster / Osnabrueck

Current Time: Jan 24, 2017 at 2:15:16 am

Latest Report: Jan 24, 2017 at 1:20 am


Visibility: 1 mi

Pressure: 30.30 "Hg

Humidity: 100%

Dew Point: 30 °F

Location of GüterslohLocation

Past Weather in Gütersloh — Graph

°F

Gütersloh Temperature Yesterday

Maximum temperature yesterday: 30 °F (at 1:50 pm)
Minimum temperature yesterday: 23 °F (at 12:20 am)
Average temperature yesterday: 28 °F

High & Low Weather Summary for the Past Weeks

 TemperatureHumidityPressure
High46 °F (Jan 11, 1:50 pm)100% (Jan 9, 3:50 am)30.74 "Hg (Jan 9, 3:50 am)
Low19 °F (Jan 22, 6:50 am)36% (Jan 20, 1:50 pm)28.94 "Hg (Jan 13, 2:20 am)
Average32 °F87%30.16 "Hg
* Reported Jan 9 12:20 am — Jan 24 12:50 am, Gütersloh, Weather by CustomWeather, © 2017

Note: Actual official high and low records may vary slightly from our data, if they occured in-between our weather recording intervals... More about our weather records

Advertising

Gütersloh Weather History for the Previous 24 Hours

Scroll right to see more
 ConditionsComfort  
Time TempWeatherWind HumidityBarometerVisibility
12:50 am
Tue, Jan 24
30 °FIce fog.5 mph93%30.30 "Hg1 mi
12:20 am30 °FIce fog.3 mph93%30.30 "Hg1 mi
11:50 pm
Mon, Jan 23
30 °FIce fog.5 mph93%30.30 "Hg2 mi
11:20 pm30 °FIce fog.3 mph93%30.30 "Hg2 mi
10:50 pm30 °FIce fog.3 mph93%30.30 "Hg2 mi
10:20 pm30 °FIce fog.3 mph93%30.30 "Hg2 mi
9:50 pm30 °FIce fog.3 mph93%30.30 "Hg2 mi
9:20 pm30 °FIce fog.3 mph93%30.30 "Hg2 mi
8:50 pm30 °FIce fog.5 mph93%30.30 "Hg2 mi
8:20 pm30 °FIce fog.5 mph93%30.30 "Hg2 mi
7:50 pm30 °FIce fog.5 mph93%30.30 "Hg2 mi
7:20 pm30 °FIce fog.2 mph93%30.30 "Hg1 mi
6:50 pm30 °FIce fog.5 mph93%30.30 "Hg1 mi
6:20 pm30 °FIce fog.6 mph93%30.30 "Hg2 mi
5:50 pm30 °FIce fog.5 mph93%30.30 "Hg2 mi
5:20 pm30 °FIce fog.5 mph93%30.30 "Hg2 mi
4:50 pm30 °FIce fog.3 mph93%30.30 "Hg1 mi
4:20 pm30 °FIce fog.3 mph93%30.30 "Hg2 mi
3:50 pm30 °FIce fog.3 mph93%30.30 "Hg2 mi
3:20 pm30 °FIce fog.5 mph93%30.30 "Hg2 mi
2:50 pm30 °FIce fog.3 mph93%30.33 "Hg2 mi
2:20 pm30 °FIce fog.3 mph93%30.33 "Hg1 mi
1:50 pm30 °FIce fog.3 mph93%30.33 "Hg1 mi
1:20 pm28 °FIce fog.5 mph100%30.33 "Hg1 mi
12:50 pm28 °FIce fog.3 mph100%30.33 "Hg1 mi
12:20 pm28 °FIce fog.2 mph93%30.33 "Hg1 mi
11:50 am28 °FIce fog.2 mph93%30.33 "Hg1 mi
11:20 am28 °FIce fog.2 mph93%30.33 "Hg1 mi
10:50 am28 °FIce fog.No wind93%30.33 "Hg1 mi
10:20 am27 °FIce fog.No wind100%30.33 "Hg1 mi
9:50 am27 °FIce fog.No wind100%30.33 "Hg1 mi
9:20 am27 °FIce fog.2 mph100%30.33 "Hg1 mi
8:50 am27 °FIce fog.2 mph100%30.33 "Hg1 mi
8:20 am27 °FIce fog.1 mph100%30.33 "Hg1 mi
7:50 am27 °FIce fog.1 mph93%30.30 "Hg1 mi
7:20 am27 °FIce fog.5 mph93%30.30 "Hg1 mi
6:50 am27 °FIce fog.8 mph93%30.30 "Hg1 mi
6:20 am25 °FIce fog.2 mph93%30.30 "Hg1 mi
5:50 am25 °FIce fog.2 mph93%30.30 "Hg1 mi
5:20 am23 °FIce fog.7 mph100%30.30 "Hg1 mi
4:50 am23 °FIce fog.5 mph93%30.30 "Hg1 mi
4:20 am23 °FIce fog.5 mph100%30.30 "Hg1 mi
3:50 am23 °FIce fog.6 mph100%30.30 "Hg1 mi
3:20 am23 °FIce fog.6 mph100%30.30 "Hg1 mi
2:50 am23 °FIce fog.3 mph100%30.30 "Hg1 mi
2:20 am23 °FIce fog.5 mph100%30.30 "Hg0 mi
Weather by CustomWeather, © 2017

See weather overviewHow to use our weather pages